Content
SEND FEEDBACK

Daily
Averages
Monthly
Summary
Ecuador

PILLARO VIEJO, ECUADOR


Home > South America > Ecuador
Elevation: 8268 feet     Latitude: 01 12S     Longitude: 078 34W

WEATHER
 
SELECT A DAY
Number of Records: 103,511;   Date Range: 10/10/97 - 8/10/14
 
SHARE

PRINT THIS DATA

[ ← Previous Day ]
WEATHER ALMANAC - JANUARY 31, 2013
[ Next Day → ]
[ °C ]   °F
Weather ElementAverageHighLow
Temperature58.9 °F68 °F (2:00 pm)51.8 °F (5:00 am)
Dewpoint50.1 °F51.8 °F (1:00 am)48 °F (4:00 pm)
Humidity73.7 %94 % (1:00 am)37 % (4:00 pm)
Barometer31.56 in (7:00 pm)30.24 in (4:00 pm)
Wind Speed12.9 mph25.3 mph (4:00 pm)
Weather ElementAverage
Visibility6.9 mi
Wind DirectionS (183.8 °)

Weather ElementTotal
Precipitation---
Heating Degree Days5.1 (Base 65)
Growing Degree Days9.9 (Base 50)
Averaged from 26 records on January 31, 2013
WEATHER CONDITIONS BREAKOUT
WIND DIRECTION BREAKOUT
WEATHER BY HOUR - JANUARY 31, 2013
[ °C ]   °F
Local TimeTemperatureDewpointHumidityBarometerVisibilityWind DirectionWind SpeedGust SpeedPrecipitationEventsConditions
1:00 AM53.6 °F51.8 °F94 %30.39 in6.2 miSSW (200°)9.2 mphMostly Cloudy
2:00 AM53.6 °F51.8 °F94 %30.36 in6.2 miSSW (210°)8.1 mphMostly Cloudy
3:00 AM53.6 °F51.8 °F94 %30.36 in6.2 miSouth (180°)9.2 mphMostly Cloudy
4:00 AM53.6 °F51.8 °F94 %30.36 in6.2 miSouth (180°)9.2 mphMostly Cloudy
5:00 AM51.8 °F50.0 °F94 %30.36 in6.2 miSouth (180°)10.4 mphMostly Cloudy
6:00 AM51.8 °F50.0 °F94 %30.36 in6.2 miSouth (180°)9.2 mphMostly Cloudy
7:00 AM52.0 °F50.0 °F89 %6.0 miSouth (190°)10.4 mphMostly Cloudy
8:00 AM53.6 °F50.0 °F88 %30.39 in6.2 miSouth (180°)10.4 mphMostly Cloudy
9:00 AM55.4 °F50.0 °F82 %30.39 in6.2 miSouth (180°)11.5 mphMostly Cloudy
10:00 AM59.0 °F50.0 °F64 %12.0 miSouth (180°)11.5 mphMostly Cloudy
10:00 AM59.0 °F50.0 °F72 %30.42 in6.2 miSouth (180°)11.5 mphMostly Cloudy
11:00 AM62.6 °F50.0 °F63 %30.39 in6.2 miSouth (180°)16.1 mphScattered Clouds
12:00 PM64.4 °F48.2 °F56 %30.39 in6.2 miSouth (180°)18.4 mphScattered Clouds
1:00 PM66.2 °F50.0 °F56 %30.36 in6.2 miSouth (180°)18.4 mphScattered Clouds
2:00 PM68.0 °F48.2 °F49 %6.2 miSouth (180°)19.6 mphScattered Clouds
3:00 PM68.0 °F48.2 °F49 %30.27 in6.2 miSouth (180°)17.3 mphMostly Cloudy
4:00 PM68.0 °F48.0 °F37 %12.0 miSouth (180°)25.3 mphMostly Cloudy
4:00 PM68.0 °F48.2 °F49 %30.24 in6.2 miSouth (180°)25.3 mphMostly Cloudy
5:00 PM64.4 °F50.0 °F59 %30.24 in6.2 miSouth (180°)19.6 mphScattered Clouds
6:00 PM62.6 °F50.0 °F63 %30.27 in6.2 miSouth (180°)12.7 mphScattered Clouds
7:00 PM60.8 °F50.0 °F68 %30.30 in6.2 miSSW (200°)10.4 mphScattered Clouds
7:00 PM54.0 °F48.0 °F73 %12.0 miSouth (180°)9.2 mphMostly Cloudy
8:00 PM59.0 °F51.8 °F77 %30.33 in6.2 miSouth (180°)5.8 mphMostly Cloudy
9:00 PM59.0 °F51.8 °F77 %30.36 in6.2 miSouth (180°)10.4 mphScattered Clouds
10:00 PM55.4 °F51.8 °F88 %30.39 in6.2 miSouth (180°)8.1 mphScattered Clouds
11:00 PM53.6 °F51.8 °F94 %30.39 in6.2 miSSW (200°)6.9 mphPartly Cloudy
Hourly data recorded from SELT, located miles away from Pillaro Viejo, Ecuador







STORIES FROM OUR PARTNERS